TimeEST,TemperatureF,Dew PointF,Humidity,Sea Level PressureIn,VisibilityMPH,Wind Direction,Wind SpeedMPH,Gust SpeedMPH,PrecipitationIn,Events,Conditions,WindDirDegrees,DateUTC
12:15 AM,30.2,26.6,86,30.12,10.0,ESE,4.6,-,N/A,,Overcast,110,2013-12-16 05:15:00
12:35 AM,30.2,26.6,86,30.12,10.0,NNE,5.8,-,N/A,,Overcast,30,2013-12-16 05:35:00
12:55 AM,30.2,28.4,93,30.12,10.0,NE,5.8,-,N/A,,Overcast,40,2013-12-16 05:55:00
1:15 AM,30.2,28.4,93,30.11,10.0,Calm,Calm,-,N/A,,Overcast,0,2013-12-16 06:15:00
1:35 AM,30.2,28.4,93,30.11,10.0,Calm,Calm,-,N/A,,Overcast,0,2013-12-16 06:35:00
1:55 AM,30.2,28.4,93,30.11,10.0,Calm,Calm,-,N/A,,Overcast,0,2013-12-16 06:55:00
2:15 AM,30.2,28.4,93,30.12,10.0,Calm,Calm,-,N/A,,Overcast,0,2013-12-16 07:15:00
2:35 AM,30.2,28.4,93,30.12,10.0,Calm,Calm,-,N/A,,Overcast,0,2013-12-16 07:35:00
2:55 AM,30.2,28.4,93,30.13,10.0,Calm,Calm,-,N/A,,Overcast,0,2013-12-16 07:55:00
3:15 AM,30.2,28.4,93,30.14,10.0,West,3.5,-,N/A,,Overcast,260,2013-12-16 08:15:00
5:15 AM,30.2,28.4,93,30.14,10.0,West,3.5,-,N/A,,Overcast,270,2013-12-16 10:15:00
5:35 AM,30.2,26.6,86,30.15,10.0,West,5.8,-,N/A,,Overcast,270,2013-12-16 10:35:00
5:55 AM,30.2,28.4,93,30.16,10.0,WSW,5.8,-,N/A,,Overcast,250,2013-12-16 10:55:00
6:15 AM,30.2,28.4,93,30.16,10.0,WSW,3.5,-,N/A,,Overcast,250,2013-12-16 11:15:00
6:35 AM,32.0,28.4,87,30.16,10.0,Calm,Calm,-,N/A,,Overcast,0,2013-12-16 11:35:00
6:55 AM,30.2,28.4,93,30.16,10.0,Calm,Calm,-,N/A,,Overcast,0,2013-12-16 11:55:00
7:15 AM,30.2,28.4,93,30.16,10.0,North,4.6,-,N/A,,Mostly Cloudy,10,2013-12-16 12:15:00
7:35 AM,30.2,28.4,93,30.15,10.0,NNE,3.5,-,N/A,,Scattered Clouds,30,2013-12-16 12:35:00
7:55 AM,32.0,28.4,87,30.15,10.0,Calm,Calm,-,N/A,,Scattered Clouds,0,2013-12-16 12:55:00
8:15 AM,32.0,28.4,87,30.16,10.0,NNE,3.5,-,N/A,,Mostly Cloudy,30,2013-12-16 13:15:00
8:35 AM,32.0,28.4,87,30.16,10.0,Calm,Calm,-,N/A,,Mostly Cloudy,0,2013-12-16 13:35:00
8:55 AM,32.0,28.4,87,30.16,10.0,East,3.5,-,N/A,,Mostly Cloudy,100,2013-12-16 13:55:00
9:15 AM,32.0,28.4,87,30.17,10.0,Calm,Calm,-,N/A,,Mostly Cloudy,0,2013-12-16 14:15:00
9:35 AM,32.0,28.4,87,30.17,10.0,ENE,3.5,-,N/A,,Overcast,70,2013-12-16 14:35:00
9:55 AM,32.0,28.4,87,30.18,10.0,Calm,Calm,-,N/A,,Overcast,0,2013-12-16 14:55:00
10:15 AM,32.0,28.4,87,30.18,10.0,Calm,Calm,-,N/A,,Overcast,0,2013-12-16 15:15:00
10:35 AM,33.8,28.4,81,30.18,10.0,Calm,Calm,-,N/A,,Mostly Cloudy,0,2013-12-16 15:35:00
10:55 AM,33.8,30.2,87,30.17,10.0,NE,3.5,-,N/A,,Scattered Clouds,50,2013-12-16 15:55:00
11:15 AM,35.6,30.2,81,30.16,10.0,ENE,3.5,-,N/A,,Mostly Cloudy,70,2013-12-16 16:15:00
11:35 AM,37.4,30.2,75,30.14,10.0,East,4.6,-,N/A,,Overcast,90,2013-12-16 16:35:00
11:55 AM,37.4,30.2,75,30.13,10.0,NE,3.5,-,N/A,,Overcast,40,2013-12-16 16:55:00
12:15 PM,41.0,30.2,65,30.12,10.0,East,4.6,-,N/A,,Scattered Clouds,80,2013-12-16 17:15:00
12:35 PM,41.0,30.2,65,30.10,10.0,Calm,Calm,-,N/A,,Clear,0,2013-12-16 17:35:00
12:55 PM,41.0,30.2,65,30.08,10.0,East,3.5,-,N/A,,Clear,100,2013-12-16 17:55:00
1:15 PM,42.8,30.2,61,30.07,10.0,East,3.5,-,N/A,,Clear,100,2013-12-16 18:15:00
1:35 PM,42.8,32.0,66,30.06,10.0,Calm,Calm,-,N/A,,Clear,0,2013-12-16 18:35:00
1:55 PM,44.6,32.0,61,30.06,10.0,Calm,Calm,-,N/A,,Clear,0,2013-12-16 18:55:00
2:15 PM,44.6,32.0,61,30.06,10.0,Calm,Calm,-,N/A,,Clear,0,2013-12-16 19:15:00
2:35 PM,46.4,32.0,57,30.05,10.0,Calm,Calm,-,N/A,,Clear,0,2013-12-16 19:35:00
2:55 PM,44.6,32.0,61,30.05,10.0,Calm,Calm,-,N/A,,Scattered Clouds,0,2013-12-16 19:55:00
3:15 PM,44.6,32.0,61,30.05,10.0,SSE,5.8,-,N/A,,Scattered Clouds,150,2013-12-16 20:15:00
3:35 PM,46.4,32.0,57,30.05,10.0,SSE,4.6,-,N/A,,Clear,160,2013-12-16 20:35:00
3:55 PM,44.6,32.0,61,30.05,10.0,SSE,3.5,-,N/A,,Clear,160,2013-12-16 20:55:00
4:15 PM,44.6,32.0,61,30.05,10.0,Calm,Calm,-,N/A,,Clear,0,2013-12-16 21:15:00
4:35 PM,44.6,32.0,61,30.06,10.0,South,3.5,-,N/A,,Clear,170,2013-12-16 21:35:00
4:55 PM,42.8,32.0,66,30.06,10.0,Calm,Calm,-,N/A,,Clear,0,2013-12-16 21:55:00
5:15 PM,42.8,32.0,66,30.06,10.0,Calm,Calm,-,N/A,,Clear,0,2013-12-16 22:15:00
5:35 PM,42.8,32.0,66,30.06,10.0,Calm,Calm,-,N/A,,Clear,0,2013-12-16 22:35:00
5:55 PM,41.0,32.0,70,30.07,10.0,Calm,Calm,-,N/A,,Clear,0,2013-12-16 22:55:00
6:15 PM,41.0,32.0,70,30.08,10.0,Calm,Calm,-,N/A,,Clear,0,2013-12-16 23:15:00
6:35 PM,41.0,32.0,70,30.08,10.0,Calm,Calm,-,N/A,,Clear,0,2013-12-16 23:35:00
6:55 PM,39.2,32.0,75,30.08,10.0,Calm,Calm,-,N/A,,Clear,0,2013-12-16 23:55:00
7:15 PM,37.4,32.0,81,30.09,10.0,Calm,Calm,-,N/A,,Clear,0,2013-12-17 00:15:00
7:35 PM,37.4,32.0,81,30.11,10.0,Calm,Calm,-,N/A,,Clear,0,2013-12-17 00:35:00
7:55 PM,37.4,32.0,81,30.11,10.0,Calm,Calm,-,N/A,,Clear,0,2013-12-17 00:55:00
8:15 PM,35.6,32.0,87,30.11,10.0,Calm,Calm,-,N/A,,Clear,0,2013-12-17 01:15:00
8:35 PM,35.6,32.0,87,30.12,10.0,Calm,Calm,-,N/A,,Clear,0,2013-12-17 01:35:00
8:55 PM,33.8,32.0,93,30.11,10.0,Calm,Calm,-,N/A,,Clear,0,2013-12-17 01:55:00
9:15 PM,33.8,32.0,93,30.11,10.0,Calm,Calm,-,N/A,,Clear,0,2013-12-17 02:15:00
9:35 PM,33.8,32.0,93,30.12,10.0,East,10.4,-,N/A,,Clear,100,2013-12-17 02:35:00
9:55 PM,32.0,32.0,100,30.11,10.0,ESE,5.8,-,N/A,,Clear,110,2013-12-17 02:55:00
10:15 PM,33.8,32.0,93,30.12,10.0,East,9.2,-,N/A,,Clear,100,2013-12-17 03:15:00
10:35 PM,32.0,32.0,100,30.12,10.0,East,8.1,-,N/A,,Clear,100,2013-12-17 03:35:00
10:55 PM,32.0,32.0,100,30.13,10.0,SSE,3.5,-,N/A,,Clear,150,2013-12-17 03:55:00
11:15 PM,32.0,32.0,100,30.13,10.0,East,8.1,-,N/A,,Clear,100,2013-12-17 04:15:00
11:35 PM,32.0,32.0,100,30.12,7.0,East,9.2,-,N/A,,Clear,100,2013-12-17 04:35:00
11:55 PM,32.0,32.0,100,30.12,7.0,ENE,4.6,-,N/A,,Clear,70,2013-12-17 04:55:00